FW5399 Weather Reports


time (UTC)temp
C
wind
direction
speed
KPH
gust
KPH
rain 1hr
cm
rain 24hr
cm
rain mn
cm
humidity
%
barometer
mb
20260503204422 10 312 0.0 1.6 0.00 0.03 0.03 99 1035.7
20260503203922 10 311 0.0 1.6 0.00 0.03 0.03 100 1035.7
20260503203421 10 309 0.0 0.0 0.00 0.03 0.03 100 1035.7
20260503202918 10 308 0.0 0.0 0.00 0.03 0.03 100 1035.8
20260503202411 9 309 0.0 0.0 0.00 0.03 0.03 99 1035.7
20260503201908 8 309 0.0 0.0 0.00 0.03 0.03 100 1035.6
20260503201406 8 308 0.0 0.0 0.00 0.03 0.03 100 1035.6
20260503200912 8 309 0.0 0.0 0.00 0.03 0.03 99 1035.6
20260503200756 8 309 0.0 0.0 0.00 0.03 0.03 99 1035.5
20260503200315 8 309 0.0 0.0 0.00 0.03 0.03 99 1035.4
20260503195408 8 310 0.0 0.0 0.00 0.03 0.03 99 1035.2
20260503194904 8 310 0.0 0.0 0.00 0.03 0.03 99 1035.2
20260503194404 8 310 0.0 0.0 0.00 0.03 0.03 99 1035.2
20260503194311 8 310 0.0 0.0 0.00 0.03 0.03 99 1035.2
20260503193404 8 310 0.0 0.0 0.00 0.03 0.03 99 1035.2
20260503192906 8 310 0.0 0.0 0.00 0.03 0.03 99 1035.2
20260503192404 8 310 0.0 0.0 0.00 0.03 0.03 99 1035.1
20260503191904 8 310 0.0 0.0 0.00 0.03 0.03 99 1034.9
20260503191535 8 310 0.0 0.0 0.00 0.03 0.03 99 1034.8
20260503190411 8 310 0.0 1.6 0.00 0.03 0.03 99 1034.6
20260503185910 8 309 0.0 0.0 0.00 0.03 0.03 99 1034.6
20260503185404 8 310 0.0 0.0 0.00 0.03 0.03 99 1034.6
20260503184858 8 309 0.0 0.0 0.00 0.03 0.03 99 1034.6
20260503184353 8 310 0.0 0.0 0.00 0.03 0.03 99 1034.6
20260503184254 8 310 0.0 0.0 0.00 0.03 0.03 98 1034.6
20260503183340 8 310 0.0 0.0 0.00 0.03 0.03 98 1034.5
20260503182834 8 310 0.0 0.0 0.00 0.03 0.03 98 1034.5
20260503182328 8 309 0.0 0.0 0.00 0.03 0.03 98 1034.5
20260503181822 8 309 0.0 0.0 0.00 0.03 0.03 99 1034.4
20260503181733 8 309 0.0 1.6 0.00 0.03 0.03 99 1034.4
20260503180811 9 309 0.0 1.6 0.00 0.03 0.03 99 1034.3
20260503180305 9 344 0.0 1.6 0.00 0.03 0.03 99 1034.4
20260503175758 9 344 0.0 1.6 0.00 0.03 0.03 99 1034.3
20260503175252 9 351 0.0 1.6 0.00 0.03 0.03 99 1034.2
20260503174747 9 4 0.0 0.0 0.00 0.03 0.03 100 1034.1
20260503174240 8 354 0.0 0.0 0.00 0.03 0.03 99 1034.3
20260503173734 8 325 0.0 0.0 0.00 0.03 0.03 99 1034.2
20260503173228 8 325 0.0 0.0 0.00 0.03 0.03 99 1034.2
20260503172723 8 325 0.0 0.0 0.00 0.03 0.03 99 1034.2
20260503172605 9 325 0.0 0.0 0.00 0.03 0.03 99 1034.3
20260503171704 9 325 0.0 0.0 0.00 0.03 0.03 99 1034.3
20260503171159 9 325 0.0 1.6 0.00 0.03 0.03 100 1034.3
20260503170653 9 325 0.0 1.6 0.00 0.03 0.03 100 1034.4
20260503170147 9 325 0.0 3.2 0.00 0.03 0.03 100 1034.5
20260503150626 8 338 0.0 3.2 0.03 0.03 0.03 100 1035.1
20260503150126 8 329 0.0 0.0 0.03 0.03 0.03 100 1035.2
20260503140124 7 287 0.0 0.0 0.00 0.03 0.00 100 1035.9
20260503131033 5 308 0.0 0.0 0.00 0.03 0.00 100 1036.0
20260503130533 5 308 0.0 0.0 0.00 0.03 0.00 100 1036.1
20260503130416 5 308 0.0 0.0 0.00 0.03 0.00 99 1036.1
20260503110506 4 308 0.0 0.0 0.00 0.03 0.03 99 1035.1
20260503081201 5 308 0.0 0.0 0.00 0.03 0.03 97 1033.9
20260503081055 5 308 0.0 0.0 0.00 0.03 0.03 97 1033.8
20260503080150 5 308 0.0 0.0 0.00 0.03 0.03 97 1033.8
20260503072608 6 308 0.0 0.0 0.00 0.03 0.03 96 1033.8
20260503072108 6 308 0.0 0.0 0.00 0.03 0.03 96 1033.7
20260503071609 7 308 0.0 0.0 0.00 0.03 0.03 96 1033.6
20260503071519 7 308 0.0 0.0 0.00 0.03 0.03 96 1033.7
20260503070605 7 308 0.0 0.0 0.00 0.03 0.03 96 1033.5
20260503070104 7 308 0.0 0.0 0.00 0.03 0.03 96 1033.5
20260503055102 10 308 0.0 0.0 0.00 0.03 0.03 94 1033.2
20260503054600 10 308 0.0 0.0 0.00 0.03 0.03 94 1033.0
20260503054101 10 309 0.0 0.0 0.00 0.03 0.03 94 1033.0
20260503053601 10 309 0.0 0.0 0.00 0.03 0.03 93 1033.0
20260503053500 10 309 0.0 0.0 0.00 0.03 0.03 93 1033.0
20260503052601 11 308 0.0 0.0 0.00 0.03 0.03 93 1032.9
20260503052455 11 308 0.0 0.0 0.00 0.03 0.03 93 1032.8
20260503051603 11 308 0.0 0.0 0.00 0.03 0.03 92 1032.8
20260503051522 11 309 0.0 0.0 0.00 0.03 0.03 92 1032.7
20260503050559 12 309 0.0 0.0 0.00 0.03 0.03 91 1032.7
20260503050059 12 308 0.0 0.0 0.00 0.03 0.03 91 1032.7
20260503045558 12 309 0.0 0.0 0.00 0.03 0.03 90 1032.7
20260503045111 12 308 0.0 0.0 0.00 0.03 0.03 90 1032.8
20260503044559 13 309 0.0 0.0 0.00 0.03 0.03 89 1032.6
20260503044109 13 309 0.0 0.0 0.00 0.03 0.03 88 1032.7
20260503043556 13 308 0.0 0.0 0.00 0.03 0.03 87 1032.6
20260503043052 13 308 0.0 0.0 0.00 0.03 0.03 86 1032.7
20260503042544 13 309 0.0 0.0 0.00 0.03 0.03 85 1032.7
20260503042039 14 308 0.0 0.0 0.00 0.03 0.03 84 1032.7
20260503041532 14 308 0.0 0.0 0.00 0.03 0.03 83 1032.6
20260503041044 14 308 0.0 0.0 0.00 0.03 0.03 82 1032.7
20260503040924 15 309 0.0 0.0 0.00 0.03 0.03 81 1032.6
20260503040015 15 309 0.0 0.0 0.00 0.03 0.03 80 1032.7
20260503035508 15 309 0.0 0.0 0.00 0.03 0.03 78 1032.7
20260503035002 16 309 0.0 0.0 0.00 0.03 0.03 75 1032.7
20260503034456 17 309 0.0 0.0 0.00 0.03 0.03 73 1032.7
20260503033954 18 309 0.0 0.0 0.00 0.03 0.03 70 1032.6
20260503033444 19 309 0.0 0.0 0.00 0.03 0.03 68 1032.7
20260503032937 19 309 0.0 0.0 0.00 0.03 0.03 68 1032.7
20260503032432 19 309 0.0 0.0 0.00 0.03 0.03 69 1032.8
20260503031933 19 309 0.0 0.0 0.00 0.03 0.03 67 1032.8
20260503031831 19 309 0.0 0.0 0.00 0.03 0.03 68 1032.8
20260503030914 19 309 0.0 0.0 0.00 0.03 0.03 66 1032.8
20260503030408 18 302 0.0 0.0 0.00 0.03 0.03 69 1032.8
20260503025902 19 301 0.0 0.0 0.00 0.03 0.03 69 1032.8
20260503025356 19 301 0.0 0.0 0.00 0.03 0.03 69 1032.8
20260503024851 19 301 0.0 0.0 0.00 0.03 0.03 68 1032.8
20260503024344 20 301 0.0 0.0 0.00 0.03 0.03 66 1032.9
20260503023838 20 300 0.0 0.0 0.00 0.03 0.03 66 1032.8
20260503023332 20 301 0.0 0.0 0.00 0.03 0.03 65 1032.9
20260503022826 20 300 0.0 0.0 0.00 0.03 0.03 67 1032.9
20260503022721 20 301 0.0 0.0 0.00 0.03 0.03 64 1032.9
20260503021814 20 301 0.0 0.0 0.00 0.03 0.03 66 1033.1
20260503021308 20 300 0.0 0.0 0.00 0.03 0.03 66 1033.1
20260503020802 21 300 0.0 0.0 0.00 0.03 0.03 66 1033.2
20260503020256 21 300 0.0 0.0 0.00 0.03 0.03 66 1033.2
20260503015752 20 300 0.0 0.0 0.00 0.03 0.03 61 1033.3
20260503015245 20 328 0.0 0.0 0.00 0.03 0.03 67 1033.2
20260503014737 20 328 0.0 0.0 0.00 0.03 0.03 67 1033.4
20260503014232 20 326 0.0 0.0 0.00 0.03 0.03 65 1033.5
20260503013726 20 327 0.0 1.6 0.00 0.03 0.03 69 1033.4
20260503013222 20 327 0.0 1.6 0.00 0.03 0.03 68 1033.5
20260503012714 19 327 0.0 1.6 0.00 0.03 0.03 70 1033.6
20260503012207 19 327 0.0 0.0 0.00 0.03 0.03 68 1033.7
20260503011703 19 319 0.0 0.0 0.00 0.03 0.03 67 1033.8
20260503011534 19 298 0.0 1.6 0.00 0.03 0.03 67 1033.8
20260503010652 19 298 0.0 1.6 0.00 0.03 0.03 71 1033.8
20260503010145 19 231 0.0 1.6 0.00 0.03 0.03 69 1033.8
20260503005640 20 335 0.0 1.6 0.00 0.03 0.03 66 1033.8
20260503005140 20 334 0.0 1.6 0.00 0.03 0.03 67 1033.9
20260503004642 20 255 0.0 1.6 0.00 0.03 0.03 69 1033.9
20260503004141 19 334 0.0 1.6 0.00 0.03 0.03 70 1033.9
20260503003641 19 319 0.0 1.6 0.00 0.03 0.03 73 1034.1
20260503003605 18 320 0.0 3.2 0.00 0.03 0.03 72 1034.3
20260503002824 18 305 0.0 3.2 0.00 0.03 0.03 74 1034.4
20260503001636 18 324 0.0 3.2 0.00 0.03 0.03 73 1034.5
20260503001140 18 319 0.0 3.2 0.00 0.03 0.03 73 1034.5
20260503000848 18 273 0.0 3.2 0.00 0.03 0.03 72 1034.5
20260502235807 18 356 0.0 3.2 0.00 0.03 0.03 76 1034.5
20260502234632 17 329 0.0 4.8 0.00 0.03 0.03 74 1034.8
20260502234541 18 280 0.0 4.8 0.00 0.03 0.03 75 1034.8
20260502233628 17 267 0.0 3.2 0.00 0.03 0.03 74 1034.9
20260502233126 17 296 0.0 3.2 0.00 0.03 0.03 76 1034.9
20260502232627 17 325 0.0 3.2 0.00 0.03 0.03 74 1034.9
20260502232126 17 316 0.0 1.6 0.00 0.03 0.03 75 1035.1
20260502231627 17 343 0.0 1.6 0.00 0.03 0.03 77 1035.2
20260502231128 17 330 0.0 1.6 0.00 0.03 0.03 76 1035.4
20260502231032 17 306 0.0 1.6 0.00 0.03 0.03 77 1035.5
20260502230540 16 348 0.0 1.6 0.00 0.03 0.03 78 1035.4
20260502225627 16 274 0.0 1.6 0.00 0.03 0.03 78 1035.5
20260502225126 16 317 0.0 1.6 0.00 0.03 0.03 79 1035.5
20260502224629 16 275 0.0 3.2 0.00 0.03 0.03 80 1035.4
20260502224127 15 312 0.0 4.8 0.00 0.03 0.03 81 1035.4
20260502224026 15 315 0.0 8.0 0.00 0.03 0.03 80 1035.5
20260502223125 15 6 0.0 8.0 0.00 0.03 0.03 80 1035.5
20260502222626 15 322 0.0 3.2 0.00 0.03 0.03 80 1035.5
20260502222126 15 307 0.0 4.8 0.00 0.03 0.03 82 1035.6
20260502221624 14 310 0.0 4.8 0.00 0.03 0.03 81 1035.6
20260502221526 14 293 0.0 3.2 0.00 0.03 0.03 83 1035.6
20260502220628 13 348 0.0 3.2 0.00 0.03 0.03 83 1035.6
20260502220610 13 310 0.0 4.8 0.00 0.03 0.03 83 1035.7
20260502220025 13 318 0.0 4.8 0.00 0.03 0.03 83 1035.5
20260502215304 13 324 0.0 3.2 0.00 0.03 0.03 84 1035.5
20260502214058 12 286 0.0 3.2 0.00 0.03 0.03 88 1035.7
20260502214004 12 287 0.0 4.8 0.00 0.03 0.03 88 1035.7
20260502213454 12 259 1.6 6.4 0.00 0.03 0.03 89 1035.8
20260502212540 11 278 1.6 6.4 0.00 0.03 0.03 88 1035.9
20260502212034 11 345 0.0 4.8 0.00 0.03 0.03 88 1036.1
20260502211925 11 262 0.0 6.4 0.00 0.03 0.03 90 1036.2
20260502211022 11 283 0.0 6.4 0.00 0.03 0.03 90 1036.2
20260502210517 10 287 0.0 4.8 0.00 0.03 0.03 91 1036.2
20260502210010 10 289 0.0 4.8 0.00 0.03 0.03 90 1036.1
20260502205503 10 287 0.0 4.8 0.00 0.03 0.03 91 1036.2
20260502204958 10 295 0.0 4.8 0.00 0.03 0.03 91 1036.2